CAPE
0 0 0 0 0 0 0 0 0 0 0 0 0 0 0 0 0 0 0 0 0 0 0 0 1236 1482 1459 1590 2032 1721 1597 1460 1462 1469 1448 1243 1243 1227 1159 1121 945 873 769 656 766 660 559 567 488
0 0 0 0 0 0 0 0 0 0 0 0 0 0 0 0 0 0 0 0 0 0 0 0 710 1350 1413 1565 1936 1840 1634 1551 1498 1501 1498 1369 1272 1315 1262 1004 802 695 740 678 565 483 330 244 249
0 0 0 0 0 0 0 0 0 0 0 0 0 0 0 0 0 0 0 0 0 0 0 2 7 1145 1367 1480 1685 1868 1678 1577 1485 1522 1443 1358 1329 1362 1249 865 664 567 558 426 400 249 173 146 134
0 0 0 0 0 0 0 0 0 0 0 0 0 0 0 0 0 0 0 0 0 0 0 0 6 786 1188 1393 1372 1742 1697 1549 1442 1353 1135 1131 1366 1388 1070 719 647 569 326 186 148 153 123 88 150
0 0 0 0 0 0 0 0 0 0 0 0 0 0 0 0 0 0 0 0 0 0 0 0 8 4 957 1114 1158 1442 1560 1593 1387 1187 1008 1133 1404 1285 989 719 562 535 287 131 213 215 150 118 142
0 0 0 0 0 0 0 0 0 0 0 0 0 0 0 0 0 0 0 0 0 0 0 0 0 5 6 787 1006 1257 1544 1461 1205 1080 1020 1289 1377 1251 880 720 590 461 325 243 260 226 176 154 105
0 0 0 0 0 0 0 0 0 0 0 0 0 0 0 0 0 0 0 0 0 0 0 0 0 0 1 1 566 1138 1473 1296 1077 1046 1125 1224 1301 1119 934 786 635 461 292 198 221 150 87 94 34
0 0 0 0 0 0 0 0 0 0 0 0 0 0 0 0 0 0 0 0 0 0 0 0 0 0 0 0 4 39 1014 983 1255 1012 1062 1147 982 977 950 778 586 360 256 190 127 91 80 50 1
0 0 0 0 0 0 0 0 0 0 0 0 0 0 0 0 0 0 0 0 0 0 0 0 0 0 0 0 1 3 236 709 830 980 969 1019 863 940 806 557 474 376 258 106 63 41 12 1 0
0 0 0 0 0 0 0 0 0 0 0 0 0 0 0 0 0 0 0 0 0 0 0 0 0 0 0 0 0 2 1 590 768 843 1263 845 858 798 539 467 357 240 160 112 33 4 0 0 0
0 0 0 0 0 0 0 0 0 0 0 0 0 0 0 0 0 0 0 0 0 0 0 0 0 0 0 0 0 1 1 174 618 708 829 727 712 499 539 371 207 173 28 4 1 0 7 5 5
0 0 0 0 0 0 0 0 0 0 0 0 0 0 0 0 0 0 0 0 0 0 0 0 0 0 0 0 0 2 1 0 488 682 754 619 399 374 379 220 142 19 1 1 2 3 2 1 3
0 0 0 0 0 0 0 0 0 0 0 0 0 0 0 0 0 0 0 0 0 0 0 0 0 0 0 0 0 0 3 6 1 681 597 510 305 282 194 64 3 1 0 5 5 2 1 1 1
0 0 0 0 0 0 0 0 0 0 0 0 0 0 0 0 0 0 0 0 0 0 0 0 0 0 0 0 0 0 0 4 1 388 455 326 357 155 8 1 0 0 2 3 1 0 0 0 0
0 0 0 0 0 0 0 0 0 0 0 0 0 0 0 0 0 0 0 0 0 0 0 0 0 0 0 0 0 0 0 3 4 0 402 280 214 13 1 0 0 1 4 1 2 0 0 0 0
0 0 0 0 0 0 0 0 0 0 0 0 0 0 0 0 0 0 0 0 0 0 0 0 0 0 0 0 0 0 0 0 4 3 2 207 120 2 0 0 0 0 1 1 0 0 0 0 0
0 0 0 0 0 0 0 0 0 0 0 0 0 0 0 0 0 0 0 0 0 0 0 0 0 0 0 0 0 0 0 0 4 4 0 221 70 0 0 0 0 0 0 0 0 0 0 0 0
0 0 0 0 0 0 0 0 0 0 0 0 0 0 0 0 0 0 0 0 0 0 0 0 0 0 0 0 0 0 5 1 4 3 3 4 28 0 0 0 0 0 0 0 0 0 0 0 0
0 0 0 0 0 0 0 0 0 0 0 0 0 0 0 0 0 0 0 0 0 0 0 0 0 0 0 0 0 0 0 0 0 5 2 0 0 0 1 0 0 0 0 0 0 0 0 0 0
0 0 0 0 0 0 0 0 0 0 0 0 0 0 0 0 0 0 0 0 0 0 0 0 0 0 0 0 0 0 4 1 0 2 2 1 0 0 0 0 0 0 0 0 0 0 0 0 0
0 0 0 0 0 0 0 0 0 0 0 0 0 0 0 0 0 0 0 0 0 0 0 0 0 0 0 0 0 0 6 1 1 2 3 1 1 0 0 0 0 0 0 0 0 0 0 0 0
0 0 0 0 0 0 0 0 0 0 0 0 0 0 0 0 0 0 0 0 0 0 0 0 0 0 0 0 0 0 1 1 0 0 3 3 0 0 0 0 0 0 0 0 0 0 0 0 0
0 0 0 0 0 0 0 0 0 0 0 0 0 0 0 0 0 0 0 0 0 0 0 0 0 0 0 0 0 0 0 1 3 0 2 1 0 0 0 0 0 0 0 0 0 0 0 0 0
0 0 0 0 0 0 0 0 0 0 0 0 0 0 0 0 0 0 0 0 0 0 0 0 0 0 0 0 0 0 0 0 4 0 0 0 1 4 0 0 0 0 0 0 0 0 0 0 0
0 0 0 0 0 0 0 0 0 0 0 0 0 0 0 0 0 0 0 0 0 0 0 0 0 0 0 0 0 0 0 0 3 1 0 1 1 1 0 0 0 0 0 0 0 0 0 0 0
0 0 0 0 0 0 0 0 0 0 0 0 0 0 0 0 0 0 0 0 0 0 0 0 0 0 0 0 0 0 0 0 1 1 1 1 0 2 0 0 0 0 0 0 0 0 0 0 0
0 0 0 0 0 0 0 0 0 0 0 0 0 0 0 0 0 0 0 1 0 0 0 0 0 0 0 0 0 0 0 0 1 1 1 3 2 2 0 0 0 0 0 0 0 0 0 0 0
0 0 0 0 0 0 0 0 0 0 0 0 0 0 0 0 0 0 1 1 0 2 1 0 0 0 0 0 0 0 0 1 4 0 2 0 1 2 1 0 0 0 0 0 0 0 0 0 0
0 0 0 0 0 0 0 0 0 0 0 0 0 0 0 0 0 1 5 0 2 0 0 0 0 0 0 0 0 0 0 0 11 0 2 0 0 0 2 0 0 0 0 0 0 0 0 0 0
0 0 0 0 0 0 0 0 0 0 0 0 0 0 0 0 0 1 2 4 2 1 1 0 0 0 0 0 0 0 0 0 6 1 0 3 0 0 4 1 0 0 0 0 0 0 0 0 0
CIN
0 0 0 0 0 0 0 0 0 0 0 0 0 0 0 0 0 0 0 0 0 0 0 0 -12 -6 -6 -5 -1 -2 -1 -3 -2 -1 0 0 0 0 0 0 0 -1 0 0 0 0 0 0 -4
0 0 0 0 0 0 0 0 0 0 0 0 0 0 0 0 0 0 0 0 0 0 0 0 -88 -7 -7 -4 -2 -3 0 0 -2 0 0 0 0 0 0 0 -1 -1 0 -1 -1 -1 -6 -31 -53
0 0 0 0 0 0 0 0 0 0 0 0 0 0 0 0 0 0 0 0 0 0 0 0 -19 -4 -6 -6 -3 -3 -1 0 -1 0 0 0 0 0 0 0 -2 -1 -2 -3 -5 -6 -20 -54 -54
0 0 0 0 0 0 0 0 0 0 0 0 0 0 0 0 0 0 0 0 0 0 0 0 0 -3 -8 -6 -3 -2 -1 0 0 -1 -3 -2 0 0 0 -2 -2 0 -10 -15 -19 -14 -35 -77 -62
0 0 0 0 0 0 0 0 0 0 0 0 0 0 0 0 0 0 0 0 0 0 0 0 0 0 -2 -11 -8 -4 -2 0 -1 -5 -4 -2 0 -1 0 -2 -4 -3 -15 -32 -10 -3 -15 -29 -37
0 0 0 0 0 0 0 0 0 0 0 0 0 0 0 0 0 0 0 0 0 0 0 0 0 0 0 -6 -10 -5 -2 -5 -2 -6 -6 0 0 -1 -2 -2 -3 -5 -6 -13 -7 -15 -9 -23 -55
0 0 0 0 0 0 0 0 0 0 0 0 0 0 0 0 0 0 0 0 0 0 0 0 0 0 0 0 -13 -5 -3 -3 -7 -4 -1 -1 -1 0 -2 -2 -1 -1 -3 -23 -22 -48 -83 -70 0
0 0 0 0 0 0 0 0 0 0 0 0 0 0 0 0 0 0 0 0 0 0 0 0 0 0 0 0 0 -27 -13 -13 -1 -8 -2 -3 -6 -2 0 0 0 -1 -4 -29 -47 -86 -84 -2 0
0 0 0 0 0 0 0 0 0 0 0 0 0 0 0 0 0 0 0 0 0 0 0 0 0 0 0 0 0 0 -17 -9 -9 -5 -6 -4 -1 -1 -1 -1 0 0 -4 -40 -1 -3 -26 0 0
0 0 0 0 0 0 0 0 0 0 0 0 0 0 0 0 0 0 0 0 0 0 0 0 0 0 0 0 0 0 0 -5 -2 -1 0 -1 -1 0 -1 -1 0 -4 -21 -39 -20 -9 0 -1 0
0 0 0 0 0 0 0 0 0 0 0 0 0 0 0 0 0 0 0 0 0 0 0 0 0 0 0 0 0 0 0 -27 0 0 -1 0 0 -1 0 0 -22 -31 -111 -5 -3 0 -1 -1 -1
0 0 0 0 0 0 0 0 0 0 0 0 0 0 0 0 0 0 0 0 0 0 0 0 0 0 0 0 0 0 0 0 -1 0 0 -2 0 0 0 -13 -60 -147 0 0 0 -1 0 -1 0
0 0 0 0 0 0 0 0 0 0 0 0 0 0 0 0 0 0 0 0 0 0 0 0 0 0 0 0 0 0 0 0 0 0 0 -3 -1 0 0 -70 -69 0 0 0 0 0 -1 0 -1
0 0 0 0 0 0 0 0 0 0 0 0 0 0 0 0 0 0 0 0 0 0 0 0 0 0 0 0 0 0 0 0 0 -11 0 -2 0 -2 -18 0 0 0 0 0 -1 0 0 -1 0
0 0 0 0 0 0 0 0 0 0 0 0 0 0 0 0 0 0 0 0 0 0 0 0 0 0 0 0 0 0 0 0 0 0 -1 0 0 -11 0 0 0 -1 -1 -1 -1 0 0 0 0
0 0 0 0 0 0 0 0 0 0 0 0 0 0 0 0 0 0 0 0 0 0 0 0 0 0 0 0 0 0 0 0 0 0 0 -2 -3 -8 0 0 0 -1 -1 -1 0 0 0 -1 -1
0 0 0 0 0 0 0 0 0 0 0 0 0 0 0 0 0 0 0 0 0 0 0 0 0 0 0 0 0 0 0 0 0 0 0 0 -6 0 0 0 0 0 0 0 0 0 0 0 0
0 0 0 0 0 0 0 0 0 0 0 0 0 0 0 0 0 0 0 0 0 0 0 0 0 0 0 0 0 -1 0 0 0 0 0 -3 -4 0 -1 0 0 0 0 0 0 0 0 0 0
0 0 0 0 0 0 0 0 0 0 0 0 0 0 0 0 0 0 0 0 0 0 0 0 0 0 0 0 0 0 0 0 0 0 0 0 0 0 0 0 0 0 0 0 0 0 0 0 0
0 0 0 0 0 0 0 0 0 0 0 0 0 0 0 0 0 0 0 0 0 0 0 0 0 0 0 0 0 0 0 0 0 0 0 0 0 0 0 0 0 0 0 0 0 0 0 0 0
0 0 0 0 0 0 0 0 0 0 0 0 0 0 0 0 0 0 0 0 0 0 0 0 0 0 0 0 0 -1 0 0 0 0 0 0 0 -1 0 0 0 0 0 0 0 0 0 0 0
0 0 0 0 0 0 0 0 0 0 0 0 0 0 0 0 0 0 0 0 0 0 0 0 0 0 0 0 0 0 0 0 0 0 0 0 0 -1 0 0 0 0 0 0 0 0 0 0 0
0 0 0 0 0 0 0 0 0 0 0 0 0 0 0 0 0 0 0 0 0 0 0 0 0 0 0 0 0 0 0 0 0 0 0 0 0 -1 0 0 0 0 0 0 0 0 0 0 0
0 0 0 0 0 0 0 0 0 0 0 0 0 0 0 0 0 0 0 0 0 0 0 0 0 0 0 0 0 0 0 0 0 0 0 0 0 0 0 0 0 0 0 0 0 0 0 0 0
0 0 0 0 0 0 0 0 0 0 0 0 0 0 0 0 0 0 0 0 0 0 0 0 0 0 0 0 0 0 0 0 0 0 0 0 0 0 0 0 0 0 0 0 0 0 0 0 0
0 0 0 0 0 0 0 0 0 0 0 0 0 0 0 0 0 0 0 0 0 0 0 0 0 0 0 0 0 0 0 0 0 0 0 0 0 0 0 0 0 0 0 0 0 0 0 0 0
0 0 0 0 0 0 0 0 0 0 0 0 0 0 0 0 0 0 -1 -3 0 0 -1 -4 0 0 0 0 0 0 0 0 0 0 0 0 0 0 0 0 0 0 0 0 0 0 0 0 0
0 0 0 0 0 0 0 0 0 0 0 0 0 0 0 0 0 -1 -1 -3 -4 -4 -5 -1 0 0 0 0 0 0 0 0 0 0 0 0 0 0 0 0 0 0 0 0 0 0 0 0 0
0 0 -1 0 0 0 0 0 0 0 0 0 0 0 0 0 0 0 0 -1 -4 -6 -5 -4 -3 0 0 0 0 0 0 0 0 0 0 0 0 0 0 0 0 0 0 0 0 0 0 0 0
0 0 0 0 0 0 -2 0 0 0 0 0 0 0 0 0 0 0 0 -2 -2 -3 -4 -3 -2 -2 0 0 0 0 0 0 0 0 0 0 0 0 0 0 0 0 0 0 0 0 0 0 0
Wind_Speed
23 18 14 11 13 14 15 15 17 17 17 18 17 14 16 19 18 19 25 26 30 30 29 29 26 9 10 10 10 11 11 13 13 12 11 11 12 12 12 13 15 17 19 21 22 22 20 16 15
18 14 12 12 16 19 21 14 16 20 25 27 19 19 18 19 18 17 22 31 29 29 28 28 31 12 11 11 10 10 10 11 12 12 11 10 10 11 10 12 13 15 18 19 20 20 19 15 12
14 13 13 16 18 21 28 22 21 25 25 25 23 20 21 21 18 21 27 30 28 28 26 26 28 17 13 13 12 11 10 10 10 11 11 10 10 9 8 8 10 11 15 18 19 19 18 15 12
15 14 16 20 25 25 28 28 26 27 20 24 27 25 19 18 19 26 28 29 27 27 25 24 24 29 17 15 13 13 11 10 9 9 9 8 8 7 7 7 8 9 12 16 17 17 17 15 13
15 17 23 27 29 27 28 31 30 30 26 27 28 27 24 20 24 28 30 29 29 28 26 23 23 22 25 18 16 14 13 11 10 9 9 8 7 7 7 7 8 9 12 16 17 17 15 15 15
19 20 28 33 32 29 28 32 30 30 29 30 30 33 28 23 31 32 31 30 28 27 26 24 22 23 21 31 19 16 15 14 12 10 10 9 8 8 8 8 9 11 12 14 16 16 14 14 14
21 24 31 34 35 32 34 32 31 34 34 31 33 33 30 28 34 35 33 31 29 27 26 24 23 24 24 24 28 18 17 17 15 12 10 10 9 9 9 10 11 11 12 13 15 16 14 13 12
22 25 32 33 37 37 32 34 32 34 36 34 29 34 35 37 38 37 35 32 30 29 27 25 24 23 24 25 26 30 21 18 17 14 13 11 11 10 10 10 11 11 12 12 13 15 13 10 10
21 28 35 35 37 36 34 38 32 32 37 36 34 39 36 41 41 40 38 36 34 31 29 27 26 25 25 25 28 29 32 22 20 17 15 13 11 12 12 11 12 12 12 12 13 14 13 10 10
27 32 35 30 31 35 37 35 36 35 38 40 39 35 39 41 40 41 41 40 37 36 33 30 28 28 27 26 28 28 28 23 23 21 18 16 13 13 12 13 13 13 13 13 12 12 15 11 8
30 34 31 30 31 31 32 32 28 34 36 36 39 42 41 40 41 41 40 39 38 37 35 33 31 30 30 28 30 27 26 30 28 24 22 19 17 15 14 15 15 14 14 12 11 12 8 8 9
33 31 29 29 29 29 29 27 28 29 34 34 37 36 36 40 40 40 40 39 38 37 36 34 32 32 31 31 32 33 32 28 28 28 25 22 20 18 17 16 17 16 15 13 13 11 9 7 8
33 33 29 29 29 24 24 24 27 31 29 30 30 33 39 40 39 38 37 37 37 38 38 37 36 35 33 35 34 33 37 26 28 30 28 25 23 21 19 18 18 19 17 15 13 11 9 8 6
33 31 30 29 25 23 23 24 28 24 26 27 36 37 37 38 37 36 35 35 35 36 37 37 36 36 35 38 36 38 35 31 27 32 32 29 26 24 22 21 20 20 18 17 14 12 10 8 6
31 34 32 24 26 23 24 25 18 21 32 35 35 31 30 28 29 31 33 34 34 35 36 37 37 37 38 39 40 38 34 37 35 29 36 33 29 27 24 23 22 20 19 17 15 12 10 9 7
35 31 39 29 23 21 24 25 26 29 36 33 29 24 23 24 27 30 32 33 34 36 37 38 38 38 38 39 41 40 41 37 35 35 35 37 32 31 27 26 25 22 19 18 16 14 11 10 9
37 42 39 33 22 23 22 30 27 35 31 26 25 24 25 27 29 32 33 35 35 37 38 39 39 40 40 40 41 42 39 37 40 33 25 37 36 34 31 28 27 24 22 19 18 15 13 12 10
46 43 37 32 25 22 22 22 28 29 25 23 24 26 28 30 32 34 36 37 38 38 39 40 40 40 40 41 41 39 42 40 37 33 37 37 41 38 34 31 28 27 24 21 19 17 14 13 12
38 38 35 28 22 29 22 19 16 14 10 16 23 28 30 32 34 37 39 40 40 40 40 41 41 41 41 42 42 44 42 44 39 32 36 38 43 42 37 33 31 29 27 24 20 18 16 15 14
38 38 34 26 24 22 19 15 9 15 13 11 8 14 32 35 39 43 45 43 40 40 41 42 42 43 42 42 42 44 45 42 42 42 33 28 43 45 39 37 34 31 29 27 23 20 18 16 17
43 34 35 31 28 18 19 16 15 13 12 10 9 12 6 19 44 48 45 42 41 41 42 43 44 45 45 44 44 45 44 43 42 42 42 35 39 48 42 39 35 33 31 30 25 22 21 19 16
44 34 33 29 21 23 23 18 12 15 14 13 13 12 10 17 38 38 44 43 43 42 43 44 45 46 46 46 46 47 47 49 44 45 40 35 34 48 44 41 38 35 32 31 28 24 22 20 19
37 36 32 24 17 20 21 18 13 14 17 20 20 18 17 20 31 38 43 44 44 44 43 45 46 47 47 48 47 47 49 47 46 48 42 37 41 51 46 43 40 37 34 33 30 27 24 22 20
38 38 29 22 18 22 21 22 13 17 20 22 23 24 20 38 40 30 47 46 45 45 45 45 47 49 48 48 48 50 51 50 49 45 48 40 39 47 47 44 41 39 36 33 33 29 26 24 21
42 45 43 35 28 24 19 17 14 19 24 24 27 29 47 38 40 49 49 49 47 47 47 47 47 49 48 49 50 51 49 50 52 43 42 39 37 52 48 45 43 40 38 34 33 32 28 25 22
41 41 43 44 33 24 16 18 21 22 26 26 32 30 37 31 51 56 54 52 50 48 47 48 49 50 50 51 52 52 52 50 51 45 43 39 42 47 48 45 42 40 39 35 34 33 31 26 24
40 43 32 33 23 22 18 18 13 21 27 35 39 32 33 33 39 36 48 50 50 49 48 48 51 51 51 52 52 52 51 49 52 51 45 42 39 45 50 46 43 40 40 37 35 35 32 28 24
35 31 39 34 35 31 23 18 15 24 37 53 34 35 37 38 37 32 26 25 48 46 47 47 49 52 51 52 52 52 52 51 53 52 46 46 40 40 48 47 44 41 40 38 36 35 33 29 25
37 38 34 30 25 27 29 23 23 25 39 45 39 39 41 38 35 31 27 23 35 45 42 44 46 51 53 53 53 53 53 52 53 53 52 48 44 43 49 50 46 44 40 38 36 35 33 30 25
32 35 34 38 31 19 19 21 21 34 38 39 38 43 42 38 34 30 27 22 30 44 42 41 44 49 52 52 52 53 54 53 53 52 49 51 46 49 55 56 47 45 41 40 36 34 33 31 26
Wind_Direction
341 353 5 14 345 338 325 325 321 322 322 320 313 307 305 302 296 295 305 308 304 295 284 269 252 214 195 181 159 145 137 128 123 117 114 111 107 103 99 97 97 96 94 94 92 91 86 77 74
4 13 12 358 329 317 315 313 310 312 311 306 310 301 298 293 302 304 309 304 307 300 287 269 255 233 213 200 185 165 152 140 131 124 122 118 113 108 104 103 100 97 96 93 93 90 87 80 75
17 13 357 340 324 308 316 323 318 313 313 306 302 307 298 294 303 299 304 304 308 307 296 277 270 246 225 212 197 184 172 156 144 133 129 125 122 114 113 110 103 99 96 97 95 93 89 83 76
12 4 349 322 311 317 314 317 318 314 310 313 303 292 299 309 297 302 304 306 306 308 304 286 278 253 239 219 207 193 189 180 165 150 142 137 130 129 127 124 111 104 100 98 96 94 92 87 84
8 353 328 320 316 315 318 316 313 308 306 302 301 292 290 291 302 302 303 304 304 304 305 296 282 277 248 233 219 210 205 201 190 171 157 155 151 140 142 134 123 112 107 100 99 97 94 92 91
351 345 325 316 314 317 318 320 312 305 303 301 296 288 285 284 295 297 299 300 301 301 302 296 286 276 271 244 230 215 210 209 207 192 165 162 166 153 154 142 132 121 112 104 101 100 99 98 96
342 333 322 317 315 311 316 322 312 306 301 296 297 286 286 283 294 294 296 294 295 296 300 296 287 278 269 262 243 224 214 211 207 202 185 166 168 161 159 150 140 131 119 111 105 103 104 107 105
348 338 329 326 319 314 321 319 314 307 300 302 294 284 280 286 293 291 290 291 290 290 292 294 285 279 272 263 258 248 222 210 209 203 194 178 169 165 161 162 154 139 127 120 113 108 111 124 121
356 336 329 327 326 322 322 315 315 310 301 297 292 288 286 291 290 287 285 285 284 284 284 287 282 278 271 265 259 255 239 217 213 211 200 187 185 173 164 174 162 147 138 130 124 116 117 133 126
353 339 336 338 333 325 322 318 315 310 304 298 293 292 291 292 290 286 282 280 279 278 278 280 280 274 270 265 261 256 247 221 219 215 201 204 197 188 181 177 167 155 145 139 134 128 121 125 151
355 344 344 338 335 333 329 324 324 315 307 303 296 295 293 290 286 283 282 280 278 276 274 274 276 272 268 264 260 254 245 236 222 215 210 213 207 191 188 182 179 168 155 160 152 139 163 151 193
353 353 348 345 343 340 335 334 326 318 311 308 303 298 295 294 289 284 279 280 278 274 273 273 273 271 265 262 259 253 257 244 221 217 212 210 206 195 188 185 188 183 187 170 177 194 191 189 206
359 354 351 347 346 344 342 336 331 322 320 318 315 307 297 293 291 287 284 280 277 274 271 270 268 268 264 262 258 255 256 261 249 216 214 210 205 200 191 192 191 194 190 193 195 190 192 195 203
358 356 351 353 353 347 344 341 334 337 334 324 314 311 305 299 294 290 286 281 278 274 272 269 268 265 263 257 258 257 254 251 248 221 215 210 206 201 196 195 190 196 199 201 196 196 196 203 199
3 358 356 2 358 354 351 344 348 340 327 320 319 320 317 314 308 298 292 284 279 275 272 270 267 266 263 256 256 256 257 253 245 242 219 211 207 203 197 193 196 198 200 196 195 196 196 194 193
5 4 357 360 0 1 354 343 340 333 323 322 324 331 331 325 316 307 297 291 284 276 272 270 267 263 261 255 254 255 255 252 253 236 228 211 209 204 197 197 202 198 195 194 196 195 191 187 188
6 356 355 358 2 359 358 339 345 333 329 329 329 332 325 319 313 310 302 292 286 278 273 268 266 263 262 256 254 251 257 249 250 243 240 212 209 205 200 202 202 197 198 198 196 194 188 185 186
358 358 357 356 358 2 339 340 347 345 338 335 333 330 322 315 312 308 304 295 287 280 272 268 265 263 259 257 254 250 249 246 247 251 240 232 210 205 203 202 199 201 199 197 196 190 192 185 177
0 356 353 355 6 355 358 350 13 29 50 5 339 334 325 314 313 309 305 299 288 280 273 267 263 261 259 255 252 246 247 249 245 240 252 239 205 205 204 202 200 202 200 197 188 187 179 186 170
2 356 359 3 360 354 8 1 50 51 59 56 54 10 330 315 310 308 303 299 290 279 272 267 262 260 257 254 250 247 248 247 242 243 246 250 209 205 203 201 200 201 199 197 191 185 187 184 185
1 5 360 352 353 20 12 27 38 54 48 45 40 29 11 319 312 308 302 297 291 281 273 266 263 259 257 254 250 246 245 242 241 241 241 247 226 202 202 202 200 199 200 199 194 188 179 184 196
3 6 355 352 8 12 21 13 36 36 28 25 24 12 357 296 299 295 303 298 291 284 275 267 264 258 256 254 250 246 242 239 242 240 237 249 232 203 202 202 201 201 201 201 201 196 187 186 192
6 358 357 9 19 15 22 19 27 21 18 12 6 4 357 322 298 295 297 297 294 285 276 268 262 259 255 252 248 246 243 241 240 237 238 243 231 207 201 201 202 203 203 203 202 199 198 201 195
5 4 16 21 24 15 21 19 18 17 9 3 2 358 331 303 305 341 303 298 292 287 277 269 262 256 253 249 246 242 239 237 235 237 235 241 229 207 201 201 202 204 204 202 206 202 203 207 209
14 13 13 15 14 13 18 16 8 4 0 1 358 353 308 305 301 331 322 302 293 286 278 269 260 254 251 247 243 241 241 238 231 233 235 235 228 209 202 201 202 204 206 204 207 209 207 208 209
16 20 18 10 9 360 1 16 13 6 1 2 355 338 308 319 309 325 311 301 298 287 279 268 258 253 249 245 241 239 237 236 231 233 234 233 223 216 202 201 201 204 206 206 209 213 212 211 214
14 17 20 12 13 14 19 11 353 21 7 357 350 324 326 327 339 328 299 299 299 286 276 267 257 250 246 243 239 237 236 233 227 226 229 229 233 225 203 201 201 203 206 207 208 213 214 212 216
21 22 15 17 14 13 9 2 10 7 360 347 336 334 332 336 337 304 305 327 293 285 275 266 255 247 243 239 237 234 231 231 227 225 227 228 230 225 206 202 202 204 205 207 208 212 216 213 219
17 17 19 17 19 15 8 15 15 3 354 317 342 339 334 326 320 309 306 317 278 284 276 263 254 246 240 235 234 232 229 228 224 219 222 224 226 220 212 206 204 206 206 207 209 211 212 214 218
22 18 18 14 15 8 359 357 12 1 344 344 336 335 337 333 316 310 314 309 282 286 275 263 254 244 237 233 231 228 225 224 221 221 220 221 227 223 214 207 202 206 206 209 208 209 212 213 217